| time (UTC) | temp C | wind direction | speed KPH | gust KPH | rain 1hr cm | rain 24hr cm | rain mn cm | humidity % | barometer mb |
| 20260903043854 | 22 | 215 | 0.0 | 0.0 | 0.00 | 0.00 | 0.00 | 96 | 1050.7 |
| 20260903043349 | 21 | 215 | 0.0 | 0.0 | 0.00 | 0.00 | 0.00 | 96 | 1050.6 |
| 20260903042847 | 21 | 215 | 0.0 | 0.0 | 0.00 | 0.00 | 0.00 | 96 | 1050.6 |
| 20260903042343 | 22 | 215 | 0.0 | 0.0 | 0.00 | 0.00 | 0.00 | 96 | 1050.7 |
| 20260903041839 | 21 | 215 | 0.0 | 0.0 | 0.00 | 0.00 | 0.00 | 95 | 1050.8 |
| 20260903041335 | 22 | 215 | 0.0 | 0.0 | 0.00 | 0.00 | 0.00 | 95 | 1050.8 |
| 20260903040831 | 22 | 215 | 0.0 | 0.0 | 0.00 | 0.00 | 0.00 | 95 | 1050.8 |
| 20260903040329 | 22 | 215 | 0.0 | 0.0 | 0.00 | 0.00 | 0.00 | 95 | 1050.8 |
| 20260903035826 | 22 | 215 | 0.0 | 0.0 | 0.00 | 0.00 | 0.00 | 95 | 1050.5 |
| 20260903035321 | 22 | 215 | 0.0 | 0.0 | 0.00 | 0.00 | 0.00 | 95 | 1050.9 |
| 20260903034816 | 22 | 215 | 0.0 | 0.0 | 0.00 | 0.00 | 0.00 | 94 | 1050.7 |
| 20260903034311 | 22 | 215 | 0.0 | 0.0 | 0.00 | 0.00 | 0.00 | 94 | 1050.6 |
| 20260903033807 | 22 | 215 | 0.0 | 0.0 | 0.00 | 0.00 | 0.00 | 94 | 1051.1 |
| 20260903033307 | 22 | 215 | 0.0 | 0.0 | 0.00 | 0.00 | 0.00 | 94 | 1050.7 |
| 20260903032801 | 22 | 215 | 0.0 | 0.0 | 0.00 | 0.00 | 0.00 | 94 | 1051.0 |
| 20260903032257 | 22 | 215 | 0.0 | 0.0 | 0.00 | 0.00 | 0.00 | 94 | 1050.8 |
| 20260903031753 | 22 | 215 | 0.0 | 0.0 | 0.00 | 0.00 | 0.00 | 94 | 1051.0 |
| 20260903031252 | 22 | 215 | 1.6 | 1.6 | 0.00 | 0.00 | 0.00 | 93 | 1050.9 |
| 20260903030748 | 22 | 215 | 0.0 | 0.0 | 0.00 | 0.00 | 0.00 | 93 | 1051.1 |
| 20260903030243 | 22 | 215 | 0.0 | 0.0 | 0.00 | 0.00 | 0.00 | 93 | 1050.9 |
| 20260903025739 | 22 | 215 | 1.6 | 1.6 | 0.00 | 0.00 | 0.00 | 93 | 1050.9 |
| 20260903025234 | 22 | 215 | 1.6 | 1.6 | 0.00 | 0.00 | 0.00 | 93 | 1050.8 |
| 20260903024729 | 22 | 215 | 1.6 | 1.6 | 0.00 | 0.00 | 0.00 | 93 | 1051.0 |
| 20260903024228 | 23 | 215 | 0.0 | 0.0 | 0.00 | 0.00 | 0.00 | 92 | 1051.1 |
| 20260903023724 | 23 | 215 | 0.0 | 0.0 | 0.00 | 0.00 | 0.00 | 92 | 1050.9 |
| 20260903023220 | 23 | 215 | 0.0 | 0.0 | 0.00 | 0.00 | 0.00 | 92 | 1050.9 |
| 20260903022719 | 23 | 215 | 0.0 | 0.0 | 0.00 | 0.00 | 0.00 | 91 | 1051.1 |
| 20260903022218 | 23 | 215 | 0.0 | 0.0 | 0.00 | 0.00 | 0.00 | 92 | 1051.0 |
| 20260903021718 | 23 | 215 | 1.6 | 1.6 | 0.00 | 0.00 | 0.00 | 92 | 1051.0 |
| 20260903021214 | 23 | 215 | 1.6 | 1.6 | 0.00 | 0.00 | 0.00 | 92 | 1051.2 |
| 20260903020713 | 23 | 215 | 0.0 | 1.6 | 0.00 | 0.00 | 0.00 | 92 | 1051.2 |
| 20260903020208 | 23 | 215 | 1.6 | 1.6 | 0.00 | 0.00 | 0.00 | 91 | 1051.1 |
| 20260903015703 | 23 | 215 | 0.0 | 0.0 | 0.00 | 0.00 | 0.00 | 91 | 1051.0 |
| 20260903015159 | 23 | 215 | 0.0 | 0.0 | 0.00 | 0.00 | 0.00 | 90 | 1051.1 |
| 20260903014654 | 24 | 215 | 0.0 | 0.0 | 0.00 | 0.00 | 0.00 | 90 | 1050.8 |
| 20260903014153 | 24 | 215 | 0.0 | 0.0 | 0.00 | 0.00 | 0.00 | 90 | 1051.1 |
| 20260903013648 | 24 | 215 | 0.0 | 0.0 | 0.00 | 0.00 | 0.00 | 90 | 1050.9 |
| 20260903013148 | 24 | 215 | 1.6 | 1.6 | 0.00 | 0.00 | 0.00 | 89 | 1050.9 |
| 20260903012647 | 24 | 215 | 1.6 | 1.6 | 0.00 | 0.00 | 0.00 | 89 | 1051.1 |
| 20260903012146 | 24 | 215 | 1.6 | 1.6 | 0.00 | 0.00 | 0.00 | 89 | 1051.0 |
| 20260903011641 | 24 | 215 | 0.0 | 0.0 | 0.00 | 0.00 | 0.00 | 89 | 1050.6 |
| 20260903011140 | 25 | 215 | 0.0 | 0.0 | 0.00 | 0.00 | 0.00 | 89 | 1050.8 |
| 20260903010636 | 25 | 215 | 0.0 | 0.0 | 0.00 | 0.00 | 0.00 | 88 | 1050.8 |
| 20260903010135 | 25 | 215 | 0.0 | 0.0 | 0.00 | 0.00 | 0.00 | 88 | 1050.7 |
| 20260903005635 | 25 | 215 | 1.6 | 1.6 | 0.00 | 0.00 | 0.00 | 87 | 1050.7 |
| 20260903005130 | 25 | 215 | 0.0 | 0.0 | 0.00 | 0.00 | 0.00 | 87 | 1050.4 |
| 20260903004625 | 25 | 215 | 0.0 | 0.0 | 0.00 | 0.00 | 0.00 | 86 | 1050.5 |
| 20260903004120 | 25 | 215 | 1.6 | 1.6 | 0.00 | 0.00 | 0.00 | 86 | 1050.4 |
| 20260903003616 | 26 | 215 | 1.6 | 1.6 | 0.00 | 0.00 | 0.00 | 86 | 1050.3 |
| 20260903003111 | 26 | 215 | 1.6 | 1.6 | 0.00 | 0.00 | 0.00 | 85 | 1050.3 |
| 20260903002606 | 26 | 215 | 1.6 | 1.6 | 0.00 | 0.00 | 0.00 | 85 | 1050.1 |
| 20260903002100 | 26 | 215 | 0.0 | 1.6 | 0.00 | 0.00 | 0.00 | 85 | 1050.4 |
| 20260903001555 | 26 | 215 | 1.6 | 1.6 | 0.00 | 0.00 | 0.00 | 83 | 1050.3 |
| 20260903001054 | 27 | 214 | 3.2 | 1.6 | 0.00 | 0.00 | 0.00 | 82 | 1050.2 |
| 20260903000550 | 27 | 215 | 1.6 | 1.6 | 0.00 | 0.00 | 0.00 | 81 | 1050.2 |
| 20260903000044 | 27 | 214 | 1.6 | 1.6 | 0.00 | 0.00 | 0.00 | 80 | 1050.3 |
| 20260902235543 | 28 | 214 | 3.2 | 1.6 | 0.00 | 0.00 | 0.00 | 80 | 1050.3 |
| 20260902235039 | 28 | 214 | 3.2 | 3.2 | 0.00 | 0.00 | 0.00 | 78 | 1050.4 |
| 20260902234538 | 29 | 214 | 3.2 | 3.2 | 0.00 | 0.00 | 0.00 | 76 | 1050.4 |
| 20260902234037 | 30 | 214 | 1.6 | 1.6 | 0.00 | 0.00 | 0.00 | 76 | 1050.4 |
| 20260902233532 | 30 | 215 | 3.2 | 1.6 | 0.00 | 0.00 | 0.00 | 73 | 1050.4 |
| 20260902233026 | 31 | 215 | 3.2 | 3.2 | 0.00 | 0.00 | 0.00 | 70 | 1050.6 |
| 20260902232526 | 32 | 215 | 1.6 | 3.2 | 0.00 | 0.00 | 0.00 | 68 | 1050.2 |
| 20260902232026 | 33 | 216 | 3.2 | 3.2 | 0.00 | 0.00 | 0.00 | 64 | 1050.5 |
| 20260902231521 | 33 | 217 | 1.6 | 1.6 | 0.00 | 0.00 | 0.00 | 61 | 1050.4 |
| 20260902231020 | 35 | 246 | 1.6 | 1.6 | 0.00 | 0.00 | 0.00 | 59 | 1050.5 |
| 20260902230515 | 35 | 268 | 1.6 | 1.6 | 0.00 | 0.00 | 0.00 | 51 | 1050.4 |
| 20260902230015 | 35 | 287 | 0.0 | 0.0 | 0.00 | 0.00 | 0.00 | 57 | 1050.3 |
| 20260902225510 | 36 | 293 | 0.0 | 1.6 | 0.00 | 0.00 | 0.00 | 54 | 1050.4 |
| 20260902225009 | 36 | 333 | 1.6 | 1.6 | 0.00 | 0.00 | 0.00 | 50 | 1050.4 |
| 20260902224508 | 36 | 348 | 0.0 | 1.6 | 0.00 | 0.00 | 0.00 | 48 | 1050.4 |
| 20260902224005 | 37 | 3 | 1.6 | 1.6 | 0.00 | 0.00 | 0.00 | 43 | 1050.3 |
| 20260902223501 | 37 | 337 | 1.6 | 1.6 | 0.00 | 0.00 | 0.00 | 41 | 1050.5 |
| 20260902223000 | 37 | 303 | 1.6 | 1.6 | 0.00 | 0.00 | 0.00 | 43 | 1050.4 |
| 20260902222459 | 37 | 294 | 1.6 | 1.6 | 0.00 | 0.00 | 0.00 | 45 | 1050.5 |
| 20260902221958 | 36 | 253 | 1.6 | 1.6 | 0.00 | 0.00 | 0.00 | 44 | 1050.3 |
| 20260902221457 | 37 | 282 | 1.6 | 1.6 | 0.00 | 0.00 | 0.00 | 38 | 1050.2 |
| 20260902220953 | 36 | 297 | 3.2 | 3.2 | 0.00 | 0.00 | 0.00 | 40 | 1050.2 |
| 20260902220453 | 36 | 301 | 3.2 | 4.8 | 0.00 | 0.00 | 0.00 | 42 | 1050.5 |
| 20260902215948 | 36 | 343 | 1.6 | 3.2 | 0.00 | 0.00 | 0.00 | 41 | 1050.5 |
| 20260902215444 | 36 | 304 | 3.2 | 3.2 | 0.00 | 0.00 | 0.00 | 46 | 1050.5 |
| 20260902214940 | 36 | 280 | 3.2 | 6.4 | 0.00 | 0.00 | 0.00 | 42 | 1050.3 |
| 20260902214439 | 36 | 340 | 3.2 | 4.8 | 0.00 | 0.00 | 0.00 | 43 | 1050.6 |
| 20260902213938 | 36 | 355 | 1.6 | 4.8 | 0.00 | 0.00 | 0.00 | 41 | 1050.3 |
| 20260902213435 | 36 | 317 | 3.2 | 3.2 | 0.00 | 0.00 | 0.00 | 41 | 1050.4 |
| 20260902212933 | 36 | 326 | 1.6 | 4.8 | 0.00 | 0.00 | 0.00 | 41 | 1050.5 |
| 20260902212430 | 36 | 29 | 6.4 | 6.4 | 0.00 | 0.00 | 0.00 | 44 | 1050.5 |
| 20260902211926 | 36 | 337 | 6.4 | 9.7 | 0.00 | 0.00 | 0.00 | 42 | 1050.5 |
| 20260902211421 | 36 | 356 | 1.6 | 4.8 | 0.00 | 0.00 | 0.00 | 42 | 1050.5 |
| 20260902210917 | 36 | 297 | 4.8 | 11.3 | 0.00 | 0.00 | 0.00 | 43 | 1050.7 |
| 20260902210416 | 36 | 304 | 3.2 | 4.8 | 0.00 | 0.00 | 0.00 | 45 | 1050.5 |
| 20260902205915 | 36 | 263 | 3.2 | 6.4 | 0.00 | 0.00 | 0.00 | 43 | 1050.7 |
| 20260902205410 | 36 | 33 | 1.6 | 6.4 | 0.00 | 0.00 | 0.00 | 41 | 1050.6 |
| 20260902204906 | 36 | 292 | 3.2 | 4.8 | 0.00 | 0.00 | 0.00 | 42 | 1050.5 |
| 20260902204405 | 36 | 335 | 6.4 | 9.7 | 0.00 | 0.00 | 0.00 | 42 | 1050.9 |
| 20260902203901 | 36 | 326 | 3.2 | 6.4 | 0.00 | 0.00 | 0.00 | 44 | 1050.9 |
| 20260902203356 | 36 | 283 | 4.8 | 6.4 | 0.00 | 0.00 | 0.00 | 43 | 1050.7 |
| 20260902202855 | 35 | 342 | 3.2 | 9.7 | 0.00 | 0.00 | 0.00 | 44 | 1050.8 |
| 20260902202351 | 36 | 318 | 4.8 | 11.3 | 0.00 | 0.00 | 0.00 | 44 | 1050.7 |
| 20260902201848 | 35 | 272 | 3.2 | 6.4 | 0.00 | 0.00 | 0.00 | 43 | 1051.2 |
| 20260902201348 | 36 | 62 | 4.8 | 6.4 | 0.00 | 0.00 | 0.00 | 42 | 1051.0 |
| 20260902200843 | 35 | 1 | 1.6 | 6.4 | 0.00 | 0.00 | 0.00 | 43 | 1051.0 |
| 20260902200338 | 36 | 284 | 8.0 | 11.3 | 0.00 | 0.00 | 0.00 | 42 | 1050.9 |
| 20260902195833 | 36 | 247 | 6.4 | 6.4 | 0.00 | 0.00 | 0.00 | 44 | 1050.5 |
| 20260902195332 | 35 | 311 | 4.8 | 6.4 | 0.00 | 0.00 | 0.00 | 44 | 1051.1 |
| 20260902194828 | 35 | 337 | 6.4 | 9.7 | 0.00 | 0.00 | 0.00 | 44 | 1051.1 |
| 20260902194327 | 35 | 295 | 4.8 | 9.7 | 0.00 | 0.00 | 0.00 | 45 | 1051.1 |
| 20260902193823 | 35 | 319 | 3.2 | 4.8 | 0.00 | 0.00 | 0.00 | 45 | 1051.0 |
| 20260902193319 | 35 | 326 | 6.4 | 9.7 | 0.00 | 0.00 | 0.00 | 45 | 1051.1 |
| 20260902192818 | 35 | 263 | 3.2 | 6.4 | 0.00 | 0.00 | 0.00 | 44 | 1051.1 |
| 20260902192316 | 35 | 303 | 8.0 | 16.1 | 0.00 | 0.00 | 0.00 | 44 | 1051.4 |
| 20260902191816 | 35 | 265 | 6.4 | 9.7 | 0.00 | 0.00 | 0.00 | 45 | 1051.9 |
| 20260902191311 | 35 | 263 | 3.2 | 9.7 | 0.00 | 0.00 | 0.00 | 44 | 1051.3 |
| 20260902190807 | 35 | 295 | 3.2 | 14.5 | 0.00 | 0.00 | 0.00 | 43 | 1051.4 |
| 20260902190306 | 35 | 331 | 8.0 | 12.9 | 0.00 | 0.00 | 0.00 | 44 | 1051.9 |
| 20260902185802 | 35 | 236 | 4.8 | 6.4 | 0.00 | 0.00 | 0.00 | 47 | 1051.6 |
| 20260902185257 | 35 | 327 | 8.0 | 12.9 | 0.00 | 0.00 | 0.00 | 46 | 1051.8 |
| 20260902184753 | 35 | 280 | 9.7 | 12.9 | 0.00 | 0.00 | 0.00 | 44 | 1051.7 |
| 20260902184248 | 35 | 299 | 4.8 | 12.9 | 0.00 | 0.00 | 0.00 | 46 | 1051.8 |
| 20260902183744 | 35 | 281 | 11.3 | 12.9 | 0.00 | 0.00 | 0.00 | 43 | 1051.7 |
| 20260902183240 | 35 | 331 | 12.9 | 14.5 | 0.00 | 0.00 | 0.00 | 42 | 1052.0 |
| 20260902182736 | 35 | 260 | 3.2 | 6.4 | 0.00 | 0.00 | 0.00 | 46 | 1051.5 |
| 20260902182232 | 35 | 305 | 3.2 | 4.8 | 0.00 | 0.00 | 0.00 | 48 | 1051.8 |
| 20260902181728 | 35 | 269 | 6.4 | 9.7 | 0.00 | 0.00 | 0.00 | 49 | 1051.7 |
| 20260902181228 | 35 | 13 | 4.8 | 6.4 | 0.00 | 0.00 | 0.00 | 48 | 1051.8 |
| 20260902180723 | 35 | 247 | 3.2 | 6.4 | 0.00 | 0.00 | 0.00 | 51 | 1051.7 |
| 20260902180218 | 34 | 309 | 3.2 | 6.4 | 0.00 | 0.00 | 0.00 | 51 | 1051.9 |
| 20260902175713 | 34 | 275 | 6.4 | 16.1 | 0.00 | 0.00 | 0.00 | 51 | 1051.9 |
| 20260902175209 | 34 | 309 | 11.3 | 14.5 | 0.00 | 0.00 | 0.00 | 48 | 1052.1 |
| 20260902174705 | 34 | 245 | 6.4 | 9.7 | 0.00 | 0.00 | 0.00 | 50 | 1052.1 |
| 20260902174201 | 34 | 356 | 4.8 | 11.3 | 0.00 | 0.00 | 0.00 | 50 | 1052.3 |
| 20260902173656 | 35 | 26 | 1.6 | 6.4 | 0.00 | 0.00 | 0.00 | 52 | 1052.1 |
| 20260902173150 | 34 | 281 | 1.6 | 4.8 | 0.00 | 0.00 | 0.00 | 52 | 1051.9 |
| 20260902172645 | 33 | 320 | 6.4 | 12.9 | 0.00 | 0.00 | 0.00 | 53 | 1052.5 |
| 20260902172144 | 33 | 297 | 6.4 | 12.9 | 0.00 | 0.00 | 0.00 | 50 | 1052.3 |
| 20260902171639 | 33 | 301 | 8.0 | 9.7 | 0.00 | 0.00 | 0.00 | 53 | 1052.2 |
| 20260902171135 | 33 | 271 | 8.0 | 9.7 | 0.00 | 0.00 | 0.00 | 50 | 1052.3 |
| 20260902170631 | 33 | 300 | 4.8 | 11.3 | 0.00 | 0.00 | 0.00 | 51 | 1052.6 |
| 20260902170126 | 33 | 260 | 8.0 | 9.7 | 0.00 | 0.00 | 0.00 | 52 | 1052.5 |
| 20260902165621 | 33 | 347 | 6.4 | 11.3 | 0.00 | 0.00 | 0.00 | 51 | 1052.2 |
| 20260902165121 | 33 | 312 | 3.2 | 9.7 | 0.00 | 0.00 | 0.00 | 53 | 1052.4 |
| 20260902164616 | 33 | 323 | 8.0 | 11.3 | 0.00 | 0.00 | 0.00 | 52 | 1052.3 |
| 20260902164115 | 33 | 249 | 6.4 | 6.4 | 0.00 | 0.00 | 0.00 | 54 | 1052.8 |
| 20260902163610 | 33 | 289 | 4.8 | 6.4 | 0.00 | 0.00 | 0.00 | 56 | 1052.8 |
| 20260902163109 | 33 | 273 | 3.2 | 9.7 | 0.00 | 0.00 | 0.00 | 55 | 1052.6 |
| 20260902162608 | 33 | 334 | 3.2 | 11.3 | 0.00 | 0.00 | 0.00 | 55 | 1052.7 |
| 20260902162103 | 33 | 297 | 3.2 | 9.7 | 0.00 | 0.00 | 0.00 | 56 | 1052.8 |
| 20260902161558 | 33 | 353 | 1.6 | 6.4 | 0.00 | 0.00 | 0.00 | 58 | 1053.1 |
| 20260902161054 | 33 | 261 | 3.2 | 4.8 | 0.00 | 0.00 | 0.00 | 58 | 1053.2 |
| 20260902160550 | 33 | 326 | 6.4 | 6.4 | 0.00 | 0.00 | 0.00 | 56 | 1053.2 |
| 20260902160045 | 33 | 322 | 3.2 | 4.8 | 0.00 | 0.00 | 0.00 | 58 | 1053.1 |
| 20260902155538 | 33 | 292 | 4.8 | 4.8 | 0.00 | 0.00 | 0.00 | 57 | 1053.1 |
| 20260902155037 | 33 | 336 | 3.2 | 9.7 | 0.00 | 0.00 | 0.00 | 57 | 1053.1 |
| 20260902154533 | 33 | 308 | 6.4 | 6.4 | 0.00 | 0.00 | 0.00 | 58 | 1053.2 |
| 20260902154033 | 32 | 38 | 0.0 | 4.8 | 0.00 | 0.00 | 0.00 | 61 | 1053.1 |
| 20260902153531 | 32 | 335 | 6.4 | 6.4 | 0.00 | 0.00 | 0.00 | 59 | 1053.3 |
| 20260902153027 | 32 | 316 | 4.8 | 4.8 | 0.00 | 0.00 | 0.00 | 59 | 1053.1 |
| 20260902152523 | 32 | 44 | 1.6 | 6.4 | 0.00 | 0.00 | 0.00 | 62 | 1053.4 |
| 20260902152019 | 31 | 40 | 6.4 | 6.4 | 0.00 | 0.00 | 0.00 | 63 | 1053.2 |
| 20260902151514 | 31 | 54 | 1.6 | 9.7 | 0.00 | 0.00 | 0.00 | 64 | 1053.2 |
| 20260902151013 | 32 | 32 | 6.4 | 9.7 | 0.00 | 0.00 | 0.00 | 60 | 1053.3 |
| 20260902150509 | 32 | 332 | 1.6 | 6.4 | 0.00 | 0.00 | 0.00 | 65 | 1053.3 |
| 20260902150010 | 31 | 305 | 4.8 | 4.8 | 0.00 | 0.00 | 0.00 | 63 | 1053.1 |
| 20260902145505 | 31 | 240 | 1.6 | 4.8 | 0.00 | 0.00 | 0.00 | 62 | 1053.1 |
| 20260902144959 | 31 | 335 | 3.2 | 3.2 | 0.00 | 0.00 | 0.00 | 63 | 1053.2 |
| 20260902144456 | 31 | 329 | 1.6 | 3.2 | 0.00 | 0.00 | 0.00 | 65 | 1053.1 |
| 20260902143955 | 30 | 83 | 1.6 | 3.2 | 0.00 | 0.00 | 0.00 | 65 | 1053.0 |
| 20260902143451 | 30 | 327 | 4.8 | 4.8 | 0.00 | 0.00 | 0.00 | 66 | 1053.0 |
| 20260902142946 | 30 | 297 | 1.6 | 4.8 | 0.00 | 0.00 | 0.00 | 67 | 1053.2 |
| 20260902142443 | 30 | 352 | 3.2 | 3.2 | 0.00 | 0.00 | 0.00 | 68 | 1053.0 |
| 20260902141943 | 30 | 50 | 3.2 | 3.2 | 0.00 | 0.00 | 0.00 | 68 | 1053.1 |
| 20260902141438 | 29 | 309 | 4.8 | 4.8 | 0.00 | 0.00 | 0.00 | 69 | 1053.1 |
| 20260902140937 | 29 | 292 | 4.8 | 4.8 | 0.00 | 0.00 | 0.00 | 69 | 1052.8 |
| 20260902140433 | 28 | 334 | 4.8 | 4.8 | 0.00 | 0.00 | 0.00 | 71 | 1053.2 |
| 20260902135932 | 28 | 330 | 6.4 | 9.7 | 0.00 | 0.00 | 0.00 | 70 | 1053.2 |
| 20260902135429 | 28 | 293 | 4.8 | 4.8 | 0.00 | 0.00 | 0.00 | 73 | 1053.3 |
| 20260902134927 | 28 | 247 | 4.8 | 6.4 | 0.00 | 0.00 | 0.00 | 74 | 1053.1 |
| 20260902134423 | 28 | 294 | 6.4 | 6.4 | 0.00 | 0.00 | 0.00 | 74 | 1053.1 |
| 20260902133919 | 27 | 255 | 0.0 | 4.8 | 0.00 | 0.00 | 0.00 | 75 | 1053.0 |
| 20260902133419 | 27 | 335 | 6.4 | 6.4 | 0.00 | 0.00 | 0.00 | 76 | 1053.1 |
| 20260902132914 | 27 | 289 | 1.6 | 3.2 | 0.00 | 0.00 | 0.00 | 79 | 1053.3 |
| 20260902132409 | 27 | 299 | 3.2 | 6.4 | 0.00 | 0.00 | 0.00 | 79 | 1053.5 |
| 20260902131904 | 26 | 262 | 4.8 | 9.7 | 0.00 | 0.00 | 0.00 | 81 | 1053.2 |
| 20260902131401 | 26 | 301 | 3.2 | 3.2 | 0.00 | 0.00 | 0.00 | 85 | 1053.5 |
| 20260902130859 | 25 | 62 | 0.0 | 1.6 | 0.00 | 0.00 | 0.00 | 94 | 1053.5 |
| 20260902130356 | 24 | 67 | 0.0 | 1.6 | 0.00 | 0.00 | 0.00 | 98 | 1053.5 |
| 20260902125850 | 23 | 56 | 1.6 | 1.6 | 0.00 | 0.00 | 0.00 | 99 | 1053.7 |
| 20260902125347 | 23 | 83 | 0.0 | 0.0 | 0.00 | 0.00 | 0.00 | 99 | 1053.6 |
| 20260902124843 | 22 | 128 | 0.0 | 0.0 | 0.00 | 0.00 | 0.00 | 99 | 1053.4 |
| 20260902124338 | 21 | 129 | 0.0 | 0.0 | 0.00 | 0.00 | 0.00 | 99 | 1053.3 |
| 20260902123833 | 21 | 129 | 0.0 | 0.0 | 0.00 | 0.00 | 0.00 | 99 | 1053.3 |
| 20260902123330 | 21 | 129 | 0.0 | 0.0 | 0.00 | 0.00 | 0.00 | 99 | 1053.4 |
| 20260902122828 | 21 | 129 | 0.0 | 0.0 | 0.00 | 0.00 | 0.00 | 99 | 1053.3 |
| 20260902122324 | 21 | 129 | 0.0 | 0.0 | 0.00 | 0.00 | 0.00 | 99 | 1053.3 |
| 20260902121823 | 20 | 129 | 0.0 | 0.0 | 0.00 | 0.00 | 0.00 | 99 | 1053.3 |
| 20260902121319 | 20 | 129 | 0.0 | 0.0 | 0.00 | 0.00 | 0.00 | 99 | 1053.3 |
| 20260902120814 | 20 | 129 | 0.0 | 0.0 | 0.00 | 0.00 | 0.00 | 99 | 1053.3 |
| 20260902120311 | 20 | 129 | 0.0 | 0.0 | 0.00 | 0.00 | 0.00 | 99 | 1053.1 |
| 20260902115805 | 20 | 129 | 0.0 | 0.0 | 0.00 | 0.00 | 0.00 | 98 | 1053.3 |
| 20260902115301 | 20 | 129 | 0.0 | 0.0 | 0.00 | 0.00 | 0.00 | 98 | 1053.1 |
| 20260902114757 | 19 | 129 | 0.0 | 0.0 | 0.00 | 0.00 | 0.00 | 98 | 1053.0 |
| 20260902114254 | 19 | 129 | 0.0 | 0.0 | 0.00 | 0.00 | 0.00 | 98 | 1053.2 |
| 20260902113753 | 19 | 129 | 0.0 | 0.0 | 0.00 | 0.00 | 0.00 | 98 | 1053.2 |
| 20260902113249 | 19 | 129 | 0.0 | 0.0 | 0.00 | 0.00 | 0.00 | 98 | 1052.7 |
| 20260902112748 | 19 | 129 | 0.0 | 0.0 | 0.00 | 0.00 | 0.00 | 98 | 1053.0 |
| 20260902112245 | 19 | 129 | 0.0 | 0.0 | 0.00 | 0.00 | 0.00 | 98 | 1052.8 |
| 20260902111740 | 19 | 129 | 0.0 | 0.0 | 0.00 | 0.00 | 0.00 | 98 | 1052.5 |
| 20260902111237 | 19 | 129 | 0.0 | 0.0 | 0.00 | 0.00 | 0.00 | 98 | 1052.5 |
| 20260902110732 | 19 | 129 | 0.0 | 0.0 | 0.00 | 0.00 | 0.00 | 98 | 1052.5 |
| 20260902110228 | 19 | 129 | 0.0 | 0.0 | 0.00 | 0.00 | 0.00 | 98 | 1052.4 |
| 20260902105727 | 19 | 129 | 0.0 | 0.0 | 0.00 | 0.00 | 0.00 | 98 | 1052.4 |
| 20260902105223 | 19 | 129 | 0.0 | 0.0 | 0.00 | 0.00 | 0.00 | 98 | 1052.4 |
| 20260902104718 | 20 | 129 | 0.0 | 0.0 | 0.00 | 0.00 | 0.00 | 98 | 1052.5 |
| 20260902104214 | 20 | 129 | 0.0 | 0.0 | 0.00 | 0.00 | 0.00 | 98 | 1052.5 |
| 20260902103713 | 19 | 129 | 0.0 | 0.0 | 0.00 | 0.00 | 0.00 | 98 | 1052.5 |
| 20260902103208 | 19 | 129 | 0.0 | 0.0 | 0.00 | 0.00 | 0.00 | 98 | 1052.4 |
| 20260902102704 | 19 | 129 | 0.0 | 0.0 | 0.00 | 0.00 | 0.00 | 98 | 1052.3 |
| 20260902102201 | 19 | 129 | 0.0 | 0.0 | 0.00 | 0.00 | 0.00 | 98 | 1052.3 |
| 20260902101701 | 19 | 129 | 0.0 | 0.0 | 0.00 | 0.00 | 0.00 | 98 | 1052.2 |
| 20260902101156 | 19 | 129 | 0.0 | 0.0 | 0.00 | 0.00 | 0.00 | 98 | 1052.3 |
| 20260902100655 | 19 | 129 | 0.0 | 0.0 | 0.00 | 0.00 | 0.00 | 98 | 1052.4 |
| 20260902100151 | 19 | 129 | 0.0 | 0.0 | 0.00 | 0.00 | 0.00 | 98 | 1052.3 |
| 20260902095650 | 19 | 129 | 0.0 | 0.0 | 0.00 | 0.00 | 0.00 | 98 | 1052.1 |
| 20260902095144 | 19 | 129 | 0.0 | 0.0 | 0.00 | 0.00 | 0.00 | 98 | 1052.2 |
| 20260902094639 | 19 | 129 | 0.0 | 0.0 | 0.00 | 0.00 | 0.00 | 98 | 1052.1 |
| 20260902094136 | 19 | 129 | 0.0 | 0.0 | 0.00 | 0.00 | 0.00 | 98 | 1052.1 |
| 20260902093634 | 19 | 129 | 0.0 | 0.0 | 0.00 | 0.00 | 0.00 | 98 | 1052.1 |
| 20260902093130 | 19 | 129 | 0.0 | 0.0 | 0.00 | 0.00 | 0.00 | 98 | 1052.0 |
| 20260902092624 | 19 | 129 | 0.0 | 0.0 | 0.00 | 0.00 | 0.00 | 98 | 1051.8 |
| 20260902092119 | 19 | 129 | 0.0 | 0.0 | 0.00 | 0.00 | 0.00 | 98 | 1052.1 |
| 20260902091614 | 19 | 129 | 0.0 | 0.0 | 0.00 | 0.00 | 0.00 | 98 | 1051.9 |
| 20260902091111 | 19 | 129 | 0.0 | 0.0 | 0.00 | 0.00 | 0.00 | 98 | 1051.8 |
| 20260902090607 | 19 | 129 | 0.0 | 0.0 | 0.00 | 0.00 | 0.00 | 98 | 1052.0 |
| 20260902090105 | 19 | 129 | 0.0 | 0.0 | 0.00 | 0.00 | 0.00 | 98 | 1051.9 |
| 20260902085600 | 20 | 129 | 0.0 | 0.0 | 0.00 | 0.00 | 0.00 | 98 | 1051.8 |
| 20260902085055 | 19 | 129 | 0.0 | 0.0 | 0.00 | 0.00 | 0.00 | 98 | 1052.0 |
| 20260902084551 | 19 | 129 | 0.0 | 0.0 | 0.00 | 0.00 | 0.00 | 98 | 1052.1 |
| 20260902084047 | 20 | 129 | 0.0 | 0.0 | 0.00 | 0.00 | 0.00 | 98 | 1051.9 |
| 20260902083542 | 20 | 129 | 0.0 | 0.0 | 0.00 | 0.00 | 0.00 | 98 | 1051.5 |
| 20260902083042 | 20 | 129 | 0.0 | 0.0 | 0.00 | 0.00 | 0.00 | 98 | 1051.8 |
| 20260902082537 | 20 | 129 | 0.0 | 0.0 | 0.00 | 0.00 | 0.00 | 98 | 1051.9 |
| 20260902082034 | 20 | 129 | 0.0 | 0.0 | 0.00 | 0.00 | 0.00 | 98 | 1051.8 |
| 20260902081530 | 20 | 129 | 0.0 | 0.0 | 0.00 | 0.00 | 0.00 | 98 | 1051.9 |
| 20260902081030 | 20 | 129 | 0.0 | 0.0 | 0.00 | 0.00 | 0.00 | 98 | 1051.9 |
| 20260902080525 | 20 | 129 | 0.0 | 0.0 | 0.00 | 0.00 | 0.00 | 98 | 1051.9 |
| 20260902080022 | 20 | 129 | 0.0 | 0.0 | 0.00 | 0.00 | 0.00 | 98 | 1051.7 |
| 20260902075516 | 20 | 129 | 0.0 | 0.0 | 0.00 | 0.00 | 0.00 | 98 | 1051.7 |
| 20260902075012 | 20 | 129 | 0.0 | 0.0 | 0.00 | 0.00 | 0.00 | 98 | 1051.7 |
| 20260902074507 | 20 | 129 | 0.0 | 0.0 | 0.00 | 0.00 | 0.00 | 98 | 1051.7 |
| 20260902074007 | 20 | 129 | 0.0 | 0.0 | 0.00 | 0.00 | 0.00 | 98 | 1052.0 |
| 20260902073503 | 20 | 129 | 0.0 | 0.0 | 0.00 | 0.00 | 0.00 | 98 | 1051.7 |
| 20260902072959 | 20 | 129 | 0.0 | 0.0 | 0.00 | 0.00 | 0.00 | 98 | 1051.5 |
| 20260902072454 | 20 | 129 | 0.0 | 0.0 | 0.00 | 0.00 | 0.00 | 98 | 1051.7 |
| 20260902071951 | 20 | 129 | 0.0 | 0.0 | 0.00 | 0.00 | 0.00 | 98 | 1051.7 |
| 20260902071450 | 20 | 129 | 0.0 | 0.0 | 0.00 | 0.00 | 0.00 | 97 | 1051.5 |
| 20260902070947 | 20 | 129 | 0.0 | 0.0 | 0.00 | 0.00 | 0.00 | 97 | 1051.4 |
| 20260902070442 | 20 | 129 | 0.0 | 0.0 | 0.00 | 0.00 | 0.00 | 98 | 1051.6 |
| 20260902065941 | 20 | 129 | 0.0 | 0.0 | 0.00 | 0.00 | 0.00 | 98 | 1051.7 |
| 20260902065436 | 20 | 129 | 0.0 | 0.0 | 0.00 | 0.00 | 0.00 | 98 | 1051.9 |
| 20260902064931 | 20 | 129 | 0.0 | 0.0 | 0.00 | 0.00 | 0.00 | 97 | 1051.5 |
| 20260902064427 | 20 | 129 | 0.0 | 0.0 | 0.00 | 0.00 | 0.00 | 97 | 1051.6 |
| 20260902063922 | 20 | 129 | 0.0 | 0.0 | 0.00 | 0.00 | 0.00 | 97 | 1051.5 |
| 20260902063422 | 21 | 129 | 0.0 | 0.0 | 0.00 | 0.00 | 0.00 | 97 | 1051.7 |
| 20260902062917 | 21 | 129 | 0.0 | 0.0 | 0.00 | 0.00 | 0.00 | 98 | 1051.9 |
| 20260902062416 | 20 | 129 | 0.0 | 0.0 | 0.00 | 0.00 | 0.00 | 98 | 1051.7 |
| 20260902061911 | 20 | 129 | 0.0 | 0.0 | 0.00 | 0.00 | 0.00 | 97 | 1051.7 |
| 20260902061406 | 21 | 129 | 0.0 | 0.0 | 0.00 | 0.00 | 0.00 | 97 | 1052.1 |
| 20260902060902 | 21 | 129 | 0.0 | 0.0 | 0.00 | 0.00 | 0.00 | 97 | 1052.0 |
| 20260902060358 | 21 | 129 | 0.0 | 0.0 | 0.00 | 0.00 | 0.00 | 97 | 1051.9 |
| 20260902055854 | 20 | 96 | 0.0 | 0.0 | 0.00 | 0.00 | 0.00 | 97 | 1052.0 |
| 20260902055350 | 21 | 93 | 0.0 | 0.0 | 0.00 | 0.00 | 0.00 | 97 | 1052.0 |
| 20260902054845 | 21 | 84 | 0.0 | 0.0 | 0.00 | 0.00 | 0.00 | 97 | 1051.9 |
| 20260902054340 | 20 | 93 | 3.2 | 3.2 | 0.00 | 0.00 | 0.00 | 97 | 1052.1 |
| 20260902053835 | 20 | 205 | 0.0 | 0.0 | 0.00 | 0.00 | 0.00 | 97 | 1052.0 |
| 20260902053330 | 20 | 205 | 0.0 | 0.0 | 0.00 | 0.00 | 0.00 | 97 | 1051.9 |
| 20260902052829 | 20 | 205 | 0.0 | 0.0 | 0.00 | 0.00 | 0.00 | 97 | 1052.1 |
| 20260902052325 | 20 | 205 | 0.0 | 0.0 | 0.00 | 0.00 | 0.00 | 97 | 1052.0 |
| 20260902051820 | 20 | 205 | 0.0 | 0.0 | 0.00 | 0.00 | 0.00 | 97 | 1051.8 |
| 20260902051319 | 21 | 205 | 0.0 | 0.0 | 0.00 | 0.00 | 0.00 | 97 | 1051.6 |
| 20260902050814 | 21 | 205 | 0.0 | 0.0 | 0.00 | 0.00 | 0.00 | 97 | 1051.7 |
| 20260902050314 | 21 | 205 | 0.0 | 0.0 | 0.00 | 0.00 | 0.00 | 97 | 1051.8 |
| 20260902045809 | 21 | 205 | 0.0 | 0.0 | 0.00 | 0.00 | 0.00 | 97 | 1051.7 |
| 20260902045306 | 21 | 205 | 0.0 | 0.0 | 0.00 | 0.00 | 0.00 | 97 | 1051.7 |
| 20260902044801 | 21 | 205 | 0.0 | 0.0 | 0.00 | 0.00 | 0.00 | 97 | 1051.8 |
| 20260902044256 | 21 | 205 | 0.0 | 0.0 | 0.00 | 0.00 | 0.00 | 97 | 1051.8 |